Caldwell, ID

4:58 AM MDT on May 26, 2017 (GMT -0600)
Caldwell Industrial

Weather History for KEUL - March, 2013

Change the Weather History Date:

Wednesday, March 20, 2013

  Actual Average (KBOI) Record (KBOI)
Temperature  
Mean Temperature 55 °F -  
Max Temperature 66 °F 55 °F 74 °F (1877)
Min Temperature 42 °F 32 °F 16 °F (1882)
Degree Days  
Heating Degree Days 10    
Growing Degree Days 5 (Base 50)    
Moisture  
Dew Point 34 °F    
Average Humidity 57    
Maximum Humidity 76    
Minimum Humidity 16    
Precipitation  
Precipitation 0.15 in - - ()
Sea Level Pressure  
Sea Level Pressure 29.81 in    
Wind  
Wind Speed 16 mph (SSE)    
Max Wind Speed 33 mph    
Max Gust Speed 38 mph    
Visibility 10 miles    
Events Thunderstorm    
Averages and records for this station are not official NWS values.
T = Trace of Precipitation, MM = Missing Value Source: NWS Daily Summary

Daily Weather History Graph

Daily Weather History Graph

Search for Another Location

Airport or City:

Trip Planner

Search our weather history database for the weather conditions in past years. The results will help you decide how hot, cold, wet, or windy it might be!

Date:

Astronomy

Mar. 20, 2013 Rise Set
Actual Time 7:49 AM MDT 7:59 PM MDT
Civil Twilight 7:20 AM MDT 8:27 PM MDT
Nautical Twilight 6:47 AM MDT 9:01 PM MDT
Astronomical Twilight 6:12 AM MDT 9:36 PM MDT
Moon 1:28 PM MDT (3/20) 3:42 AM MDT (3/20)
Length of Visible Light 13h 07m
Length of Day
12h 10m
First Quarter, 60% of the Moon is Illuminated
Mar 20
First Quarter
Mar 27
Full
Apr 2
Last Quarter
Apr 10
New
Apr 18
First Quarter

Hourly Weather History & Observations

Time (MDT) Temp. Windchill Dew Point Humidity Pressure Visibility Wind Dir Wind Speed Gust Speed Precip Events Conditions
12:15 AM 53.6 °F - 8.6 °F 16% 29.94 in 10.0 mi South 16.1 mph - N/A   Overcast
12:35 AM 53.6 °F - 8.6 °F 16% 29.93 in 10.0 mi South 19.6 mph - N/A   Overcast
12:55 AM 53.6 °F - 8.6 °F 16% 29.93 in 10.0 mi South 13.8 mph - N/A   Overcast
1:15 AM 53.6 °F - 8.6 °F 16% 29.93 in 10.0 mi South 19.6 mph 24.2 mph N/A   Overcast
1:35 AM 53.6 °F - 12.2 °F 19% 29.92 in 10.0 mi South 15.0 mph - N/A   Overcast
1:55 AM 51.8 °F - 15.8 °F 24% 29.91 in 10.0 mi SSE 10.4 mph - N/A   Overcast
2:15 AM 48.2 °F - 21.2 °F 34% 29.91 in 10.0 mi SE 8.1 mph - N/A   Overcast
2:35 AM 46.4 °F 40.7 °F 28.4 °F 50% 29.90 in 10.0 mi SSE 12.7 mph - 0.01 in   Overcast
2:55 AM 46.4 °F 41.5 °F 30.2 °F 53% 29.90 in 10.0 mi ESE 10.4 mph - 0.01 in   Overcast
3:15 AM 46.4 °F 41.1 °F 26.6 °F 46% 29.90 in 10.0 mi ESE 11.5 mph - 0.01 in   Overcast
3:35 AM 44.6 °F 39.7 °F 30.2 °F 57% 29.90 in 10.0 mi SE 9.2 mph - 0.02 in   Overcast
3:55 AM 44.6 °F 38.8 °F 35.6 °F 71% 29.90 in 10.0 mi SE 11.5 mph 18.4 mph 0.05 in   Overcast
4:15 AM 44.6 °F 38.4 °F 35.6 °F 71% 29.89 in 10.0 mi ESE 12.7 mph - 0.03 in   Overcast
4:35 AM 44.6 °F 38.1 °F 37.4 °F 76% 29.88 in 10.0 mi ESE 13.8 mph - 0.05 in   Overcast
4:55 AM 44.6 °F 37.4 °F 37.4 °F 76% 29.88 in 10.0 mi ESE 16.1 mph - 0.06 in   Overcast
5:15 AM 44.6 °F 37.4 °F 37.4 °F 76% 29.86 in 10.0 mi ESE 16.1 mph - 0.01 in   Overcast
5:35 AM 44.6 °F 38.1 °F 37.4 °F 76% 29.85 in 10.0 mi SE 13.8 mph 23.0 mph 0.01 in   Overcast
5:55 AM 44.6 °F 36.6 °F 37.4 °F 76% 29.85 in 10.0 mi SE 19.6 mph 24.2 mph 0.01 in   Overcast
6:15 AM 44.6 °F 37.8 °F 37.4 °F 76% 29.85 in 10.0 mi SSE 15.0 mph - N/A   Overcast
6:35 AM 44.6 °F 37.4 °F 37.4 °F 76% 29.86 in 10.0 mi SSE 16.1 mph - N/A   Overcast
6:55 AM 46.4 °F 39.0 °F 37.4 °F 71% 29.86 in 10.0 mi SSE 19.6 mph - N/A   Overcast
7:35 AM 46.4 °F 38.3 °F 37.4 °F 71% 29.85 in 10.0 mi SSE 23.0 mph 26.5 mph N/A   Overcast
7:55 AM 46.4 °F 39.5 °F 37.4 °F 71% 29.86 in 10.0 mi SSE 17.3 mph 23.0 mph N/A   Overcast
8:15 AM 44.6 °F 37.2 °F 35.6 °F 71% 29.86 in 10.0 mi SSE 17.3 mph 24.2 mph N/A   Overcast
8:35 AM 44.6 °F 36.4 °F 35.6 °F 71% 29.85 in 10.0 mi SSE 20.7 mph - N/A   Overcast
8:55 AM 44.6 °F 36.1 °F 35.6 °F 71% 29.86 in 10.0 mi SSE 21.9 mph 27.6 mph N/A   Overcast
9:15 AM 44.6 °F 37.2 °F 35.6 °F 71% 29.86 in 10.0 mi SSE 17.3 mph 25.3 mph N/A   Overcast
9:35 AM 46.4 °F 39.5 °F 35.6 °F 66% 29.86 in 10.0 mi SSE 17.3 mph 24.2 mph N/A   Overcast
9:55 AM 46.4 °F 39.8 °F 37.4 °F 71% 29.85 in 10.0 mi SSE 16.1 mph 25.3 mph N/A   Overcast
10:15 AM 46.4 °F 39.0 °F 37.4 °F 71% 29.86 in 10.0 mi SSE 19.6 mph 24.2 mph N/A   Overcast
10:35 AM 46.4 °F 38.5 °F 37.4 °F 71% 29.85 in 10.0 mi SSE 21.9 mph 26.5 mph N/A   Overcast
10:55 AM 48.2 °F - 39.2 °F 71% 29.84 in 10.0 mi SSE 21.9 mph 26.5 mph N/A   Overcast
11:15 AM 48.2 °F - 39.2 °F 71% 29.84 in 10.0 mi SE 25.3 mph 28.8 mph N/A   Mostly Cloudy
11:35 AM 51.8 °F - 41.0 °F 67% 29.83 in 10.0 mi SSE 18.4 mph - N/A   Clear
11:55 AM 53.6 °F - 41.0 °F 62% 29.82 in 10.0 mi SE 23.0 mph - N/A   Scattered Clouds
12:15 PM 53.6 °F - 41.0 °F 62% 29.82 in 10.0 mi SE 24.2 mph 28.8 mph N/A   Mostly Cloudy
12:35 PM 55.4 °F - 42.8 °F 63% 29.81 in 10.0 mi SSE 21.9 mph 31.1 mph N/A   Overcast
12:55 PM 55.4 °F - 41.0 °F 58% 29.80 in 10.0 mi SE 21.9 mph 27.6 mph N/A   Overcast
1:15 PM 55.4 °F - 42.8 °F 63% 29.79 in 10.0 mi SE 20.7 mph 28.8 mph N/A   Overcast
1:35 PM 57.2 °F - 42.8 °F 59% 29.77 in 10.0 mi SE 20.7 mph 25.3 mph N/A   Overcast
1:55 PM 59.0 °F - 42.8 °F 55% 29.76 in 10.0 mi SE 25.3 mph 31.1 mph N/A   Overcast
2:15 PM 57.2 °F - 41.0 °F 55% 29.76 in 10.0 mi SSE 17.3 mph 32.2 mph N/A   Overcast
2:35 PM 55.4 °F - 42.8 °F 63% 29.74 in 10.0 mi SE 17.3 mph - N/A   Mostly Cloudy
2:55 PM 57.2 °F - 42.8 °F 59% 29.73 in 10.0 mi SSE 13.8 mph 19.6 mph N/A   Mostly Cloudy
3:15 PM 57.2 °F - 39.2 °F 51% 29.71 in 10.0 mi SSE 20.7 mph - N/A   Overcast
3:35 PM 57.2 °F - 41.0 °F 55% 29.69 in 10.0 mi SE 20.7 mph 25.3 mph N/A   Overcast
3:55 PM 57.2 °F - 41.0 °F 55% 29.68 in 10.0 mi SE 13.8 mph 21.9 mph N/A   Overcast
4:15 PM 60.8 °F - 42.8 °F 52% 29.66 in 10.0 mi SE 18.4 mph 38.0 mph N/A   Mostly Cloudy
4:35 PM 60.8 °F - 41.0 °F 48% 29.65 in 10.0 mi SW 11.5 mph 17.3 mph N/A   Mostly Cloudy
4:55 PM 60.8 °F - 37.4 °F 42% 29.65 in 10.0 mi SW 15.0 mph 19.6 mph 0.01 in Thunderstorm Thunderstorm
5:15 PM 62.6 °F - 37.4 °F 39% 29.64 in 10.0 mi WSW 12.7 mph - N/A   Scattered Clouds
5:35 PM 64.4 °F - 32.0 °F 30% 29.65 in 10.0 mi West 17.3 mph 27.6 mph N/A   Mostly Cloudy
5:55 PM 66.2 °F - 32.0 °F 28% 29.65 in 10.0 mi West 17.3 mph 29.9 mph N/A   Scattered Clouds
6:15 PM 60.8 °F - 35.6 °F 39% 29.69 in 10.0 mi WNW 26.5 mph 33.4 mph N/A   Mostly Cloudy
6:35 PM 51.8 °F - 39.2 °F 62% 29.69 in 8.0 mi NW 33.4 mph 38.0 mph N/A   Mostly Cloudy
6:55 PM 51.8 °F - 37.4 °F 58% 29.72 in 10.0 mi WNW 23.0 mph 33.4 mph N/A   Scattered Clouds
7:15 PM 51.8 °F - 35.6 °F 54% 29.73 in 10.0 mi WNW 24.2 mph - N/A   Scattered Clouds
7:35 PM 50.0 °F - 37.4 °F 62% 29.75 in 10.0 mi NW 11.5 mph - N/A   Mostly Cloudy
7:55 PM 48.2 °F - 37.4 °F 66% 29.75 in 10.0 mi NNW 9.2 mph - N/A   Overcast
8:15 PM 48.2 °F - 37.4 °F 66% 29.76 in 10.0 mi NNW 4.6 mph - N/A   Overcast
8:35 PM 48.2 °F - 37.4 °F 66% 29.77 in 10.0 mi NW 4.6 mph - N/A   Overcast
8:55 PM 48.2 °F - 35.6 °F 62% 29.78 in 10.0 mi NW 9.2 mph - N/A   Overcast
9:15 PM 48.2 °F - 35.6 °F 62% 29.77 in 10.0 mi NW 4.6 mph - 0.01 in   Overcast
9:35 PM 46.4 °F 41.9 °F 35.6 °F 66% 29.79 in 10.0 mi West 9.2 mph - 0.01 in   Overcast
9:55 PM 48.2 °F - 33.8 °F 58% 29.80 in 10.0 mi WNW 15.0 mph 20.7 mph 0.01 in   Mostly Cloudy
10:15 PM 48.2 °F - 30.2 °F 50% 29.82 in 10.0 mi NW 20.7 mph 27.6 mph N/A   Mostly Cloudy
10:35 PM 46.4 °F 39.0 °F 30.2 °F 53% 29.83 in 10.0 mi NNW 19.6 mph 28.8 mph N/A   Partly Cloudy
10:55 PM 44.6 °F 38.1 °F 30.2 °F 57% 29.85 in 10.0 mi NNW 13.8 mph 23.0 mph N/A   Partly Cloudy
11:15 PM 44.6 °F 37.8 °F 28.4 °F 53% 29.87 in 10.0 mi NNW 15.0 mph - N/A   Clear
11:35 PM 42.8 °F 34.5 °F 28.4 °F 57% 29.87 in 10.0 mi NW 18.4 mph - N/A   Clear